Location: Ferchesar
(52.6477°N, 12.4298°E)
Time: 17:04:41
(UTC+01:00)

Tiros 1 - Pass Details

Date: 10 December 2021
Orbit: 629 x 664 km, 48.4° (Epoch: 22 January)

Event Time Altitude Azimuth Distance (km) Brightness Sun altitude
Rises 15:37:02 0° 196° (SSW) 2,904 11.7 1.3°
Reaches altitude 10° 15:40:23 10° 171° (S) 2,004 10.2 0.9°
Maximum altitude 15:42:40 14° 141° (SE) 1,776 9.5 0.7°
Drops below altitude 10° 15:44:58 10° 111° (ESE) 2,015 9.4 0.4°
Sets 15:48:21 0° 86° (E) 2,934 10.0 0.0°
